| time (UTC) | temp F | wind direction | speed MPH | gust MPH | rain 1hr in | rain 24hr in | rain mn in | humidity % | barometer mb |
| 20260502184524 | 76 | 349 | 5.0 | 11.0 | 0.00 | 0.00 | 0.00 | 44 | 1019.4 |
| 20260502183604 | 76 | 332 | 5.0 | 10.0 | 0.00 | 0.00 | 0.00 | 44 | 1019.6 |
| 20260502182703 | 76 | 14 | 3.0 | 11.0 | 0.00 | 0.00 | 0.00 | 44 | 1019.7 |
| 20260502181804 | 75 | 330 | 3.0 | 8.0 | 0.00 | 0.00 | 0.00 | 45 | 1019.8 |
| 20260502180903 | 76 | 1 | 2.0 | 7.0 | 0.00 | 0.00 | 0.00 | 44 | 1020.0 |
| 20260502163603 | 69 | 310 | 3.0 | 7.0 | 0.00 | 0.00 | 0.00 | 58 | 1020.9 |
| 20260502162703 | 69 | 319 | 4.0 | 8.0 | 0.00 | 0.00 | 0.00 | 59 | 1020.8 |
| 20260502161825 | 68 | 326 | 4.0 | 8.0 | 0.00 | 0.00 | 0.00 | 62 | 1020.9 |
| 20260502160903 | 68 | 340 | 3.0 | 8.0 | 0.00 | 0.00 | 0.00 | 64 | 1020.8 |
| 20260502151824 | 63 | 331 | 5.0 | 9.0 | 0.00 | 0.00 | 0.00 | 74 | 1020.7 |
| 20260502150925 | 63 | 325 | 5.0 | 10.0 | 0.00 | 0.00 | 0.00 | 76 | 1020.7 |
| 20260502123624 | 50 | 307 | 2.0 | 3.0 | 0.00 | 0.03 | 0.00 | 89 | 1019.6 |
| 20260502122704 | 50 | 306 | 1.0 | 3.0 | 0.00 | 0.03 | 0.00 | 89 | 1019.5 |
| 20260502121824 | 50 | 300 | 0.0 | 3.0 | 0.00 | 0.03 | 0.00 | 89 | 1019.3 |
| 20260502120924 | 49 | 306 | 1.0 | 3.0 | 0.00 | 0.03 | 0.00 | 89 | 1019.1 |
| 20260502115403 | 49 | 315 | 1.0 | 4.0 | 0.00 | 0.03 | 0.00 | 89 | 1018.9 |
| 20260502114503 | 49 | 319 | 0.0 | 2.0 | 0.00 | 0.03 | 0.00 | 89 | 1018.6 |
| 20260502113603 | 48 | 319 | 0.0 | 2.0 | 0.00 | 0.03 | 0.00 | 89 | 1018.5 |
| 20260502112725 | 48 | 0 | 0.0 | 0.0 | 0.00 | 0.03 | 0.00 | 89 | 1018.3 |
| 20260502111803 | 49 | 0 | 0.0 | 0.0 | 0.00 | 0.03 | 0.00 | 88 | 1018.2 |
| 20260502110903 | 49 | 0 | 0.0 | 0.0 | 0.00 | 0.03 | 0.00 | 88 | 1018.1 |
| 20260502110004 | 49 | 0 | 0.0 | 0.0 | 0.00 | 0.03 | 0.00 | 88 | 1017.9 |
| 20260502105403 | 49 | 0 | 0.0 | 0.0 | 0.00 | 0.03 | 0.00 | 88 | 1017.9 |
| 20260502104504 | 49 | 0 | 0.0 | 0.0 | 0.00 | 0.03 | 0.00 | 88 | 1017.8 |
| 20260502103624 | 49 | 0 | 0.0 | 0.0 | 0.00 | 0.03 | 0.00 | 88 | 1017.7 |
| 20260502102703 | 49 | 0 | 0.0 | 0.0 | 0.00 | 0.03 | 0.00 | 88 | 1017.6 |
| 20260502101804 | 49 | 0 | 0.0 | 0.0 | 0.00 | 0.03 | 0.00 | 88 | 1017.5 |
| 20260502100903 | 50 | 0 | 0.0 | 0.0 | 0.00 | 0.03 | 0.00 | 88 | 1017.5 |
| 20260502090924 | 50 | 0 | 0.0 | 0.0 | 0.00 | 0.03 | 0.00 | 88 | 1017.3 |
| 20260502070903 | 51 | 0 | 0.0 | 0.0 | 0.00 | 0.03 | 0.00 | 85 | 1017.5 |
| 20260502070004 | 51 | 0 | 0.0 | 0.0 | 0.00 | 0.03 | 0.00 | 85 | 1017.4 |
| 20260502065403 | 51 | 0 | 0.0 | 0.0 | 0.00 | 0.03 | 0.00 | 85 | 1017.3 |
| 20260502064524 | 52 | 0 | 0.0 | 0.0 | 0.00 | 0.03 | 0.00 | 84 | 1017.3 |
| 20260502063624 | 52 | 0 | 0.0 | 0.0 | 0.00 | 0.03 | 0.00 | 84 | 1017.5 |
| 20260502062703 | 52 | 0 | 0.0 | 0.0 | 0.00 | 0.03 | 0.00 | 84 | 1017.6 |
| 20260502061803 | 52 | 0 | 0.0 | 0.0 | 0.00 | 0.03 | 0.00 | 84 | 1017.5 |
| 20260502060903 | 52 | 0 | 0.0 | 0.0 | 0.00 | 0.03 | 0.00 | 84 | 1017.6 |
| 20260502060003 | 52 | 0 | 0.0 | 0.0 | 0.00 | 0.03 | 0.00 | 84 | 1017.7 |
| 20260502055403 | 53 | 0 | 0.0 | 0.0 | 0.00 | 0.03 | 0.00 | 83 | 1017.7 |
| 20260502054503 | 53 | 0 | 0.0 | 0.0 | 0.00 | 0.03 | 0.00 | 83 | 1017.8 |
| 20260502053603 | 53 | 0 | 0.0 | 0.0 | 0.00 | 0.03 | 0.00 | 83 | 1017.7 |
| 20260502052703 | 53 | 0 | 0.0 | 0.0 | 0.00 | 0.03 | 0.00 | 83 | 1017.6 |
| 20260502051803 | 54 | 0 | 0.0 | 0.0 | 0.00 | 0.03 | 0.00 | 82 | 1017.4 |
| 20260502050924 | 54 | 0 | 0.0 | 0.0 | 0.00 | 0.03 | 0.00 | 82 | 1017.3 |
| 20260502050004 | 54 | 0 | 0.0 | 0.0 | 0.00 | 0.03 | 0.00 | 82 | 1017.4 |
| 20260502044504 | 54 | 0 | 0.0 | 0.0 | 0.00 | 0.03 | 0.03 | 82 | 1017.3 |
| 20260502043603 | 55 | 0 | 0.0 | 0.0 | 0.00 | 0.03 | 0.03 | 82 | 1017.4 |
| 20260502042703 | 55 | 0 | 0.0 | 0.0 | 0.00 | 0.03 | 0.03 | 81 | 1017.3 |
| 20260502041803 | 55 | 0 | 0.0 | 0.0 | 0.00 | 0.03 | 0.03 | 81 | 1017.3 |
| 20260502040924 | 56 | 0 | 0.0 | 0.0 | 0.00 | 0.03 | 0.03 | 81 | 1017.3 |
| 20260502040003 | 56 | 0 | 0.0 | 0.0 | 0.00 | 0.03 | 0.03 | 80 | 1017.3 |
| 20260502035403 | 56 | 0 | 0.0 | 0.0 | 0.00 | 0.03 | 0.03 | 80 | 1017.3 |
| 20260502034503 | 56 | 0 | 0.0 | 0.0 | 0.00 | 0.03 | 0.03 | 79 | 1017.2 |
| 20260502033624 | 56 | 0 | 0.0 | 0.0 | 0.00 | 0.03 | 0.03 | 79 | 1017.0 |
| 20260502032703 | 57 | 0 | 0.0 | 0.0 | 0.00 | 0.03 | 0.03 | 79 | 1017.1 |
| 20260502031824 | 57 | 0 | 0.0 | 0.0 | 0.00 | 0.03 | 0.03 | 79 | 1017.1 |
| 20260502030904 | 57 | 0 | 0.0 | 0.0 | 0.00 | 0.03 | 0.03 | 78 | 1017.1 |
| 20260502030003 | 58 | 0 | 0.0 | 0.0 | 0.00 | 0.03 | 0.03 | 77 | 1016.9 |
| 20260502025403 | 58 | 0 | 0.0 | 0.0 | 0.00 | 0.03 | 0.03 | 76 | 1016.8 |
| 20260502024503 | 58 | 0 | 0.0 | 0.0 | 0.00 | 0.03 | 0.03 | 76 | 1016.6 |
| 20260502023603 | 58 | 0 | 0.0 | 0.0 | 0.00 | 0.03 | 0.03 | 76 | 1016.5 |
| 20260502022703 | 58 | 0 | 0.0 | 0.0 | 0.00 | 0.03 | 0.03 | 76 | 1016.4 |
| 20260502021803 | 58 | 0 | 0.0 | 0.0 | 0.00 | 0.03 | 0.03 | 75 | 1016.3 |
| 20260502020903 | 58 | 0 | 0.0 | 0.0 | 0.00 | 0.03 | 0.03 | 76 | 1016.2 |
| 20260502020004 | 58 | 0 | 0.0 | 0.0 | 0.00 | 0.03 | 0.03 | 76 | 1016.1 |
| 20260502015403 | 58 | 0 | 0.0 | 0.0 | 0.00 | 0.03 | 0.03 | 75 | 1015.8 |
| 20260502014503 | 58 | 68 | 0.0 | 1.0 | 0.00 | 0.03 | 0.03 | 75 | 1015.8 |
| 20260502013624 | 58 | 61 | 1.0 | 3.0 | 0.00 | 0.03 | 0.03 | 75 | 1015.4 |
| 20260502012703 | 59 | 63 | 2.0 | 5.0 | 0.00 | 0.03 | 0.03 | 73 | 1015.3 |
| 20260502011803 | 59 | 53 | 2.0 | 4.0 | 0.00 | 0.03 | 0.03 | 73 | 1015.3 |
| 20260502010903 | 59 | 50 | 2.0 | 5.0 | 0.00 | 0.03 | 0.03 | 72 | 1015.1 |
| 20260502010004 | 59 | 55 | 3.0 | 8.0 | 0.00 | 0.03 | 0.03 | 71 | 1015.0 |
| 20260502005404 | 59 | 52 | 3.0 | 8.0 | 0.00 | 0.03 | 0.03 | 71 | 1014.8 |
| 20260502004504 | 59 | 57 | 3.0 | 9.0 | 0.00 | 0.03 | 0.03 | 71 | 1014.6 |
| 20260502003625 | 60 | 60 | 3.0 | 10.0 | 0.00 | 0.03 | 0.03 | 70 | 1014.4 |
| 20260502002704 | 60 | 60 | 5.0 | 12.0 | 0.00 | 0.03 | 0.03 | 69 | 1014.2 |
| 20260502001804 | 60 | 55 | 4.0 | 11.0 | 0.00 | 0.03 | 0.03 | 70 | 1014.2 |
| 20260502000904 | 61 | 56 | 4.0 | 11.0 | 0.00 | 0.03 | 0.03 | 70 | 1014.2 |
| 20260502000025 | 61 | 57 | 5.0 | 11.0 | 0.00 | 0.03 | 0.03 | 70 | 1013.9 |
| 20260501235404 | 61 | 58 | 4.0 | 9.0 | 0.00 | 0.03 | 0.03 | 70 | 1013.9 |
| 20260501234504 | 61 | 58 | 4.0 | 11.0 | 0.00 | 0.03 | 0.03 | 70 | 1013.7 |
| 20260501233605 | 61 | 60 | 6.0 | 12.0 | 0.00 | 0.03 | 0.03 | 69 | 1013.7 |
| 20260501232726 | 61 | 57 | 6.0 | 15.0 | 0.00 | 0.03 | 0.03 | 68 | 1013.8 |
| 20260501231804 | 62 | 58 | 5.0 | 12.0 | 0.00 | 0.03 | 0.03 | 68 | 1013.9 |
| 20260501230925 | 62 | 59 | 5.0 | 11.0 | 0.00 | 0.03 | 0.03 | 67 | 1013.7 |
| 20260501230004 | 62 | 55 | 4.0 | 11.0 | 0.00 | 0.03 | 0.03 | 67 | 1013.5 |
| 20260501225404 | 62 | 55 | 4.0 | 9.0 | 0.00 | 0.03 | 0.03 | 67 | 1013.6 |
| 20260501224505 | 62 | 51 | 4.0 | 9.0 | 0.00 | 0.03 | 0.03 | 67 | 1013.4 |
| 20260501223604 | 62 | 52 | 5.0 | 11.0 | 0.00 | 0.05 | 0.03 | 66 | 1013.4 |
| 20260501222705 | 62 | 48 | 6.0 | 12.0 | 0.00 | 0.05 | 0.03 | 65 | 1013.4 |
| 20260501221804 | 62 | 36 | 5.0 | 12.0 | 0.00 | 0.05 | 0.03 | 65 | 1013.1 |
| 20260501220905 | 62 | 30 | 6.0 | 12.0 | 0.00 | 0.05 | 0.03 | 65 | 1013.1 |
| 20260501220004 | 62 | 32 | 7.0 | 15.0 | 0.00 | 0.05 | 0.03 | 65 | 1013.0 |
| 20260501215404 | 63 | 48 | 6.0 | 13.0 | 0.00 | 0.05 | 0.03 | 65 | 1013.1 |
| 20260501214504 | 63 | 55 | 5.0 | 15.0 | 0.00 | 0.05 | 0.03 | 68 | 1013.3 |
| 20260501213604 | 63 | 15 | 4.0 | 9.0 | 0.00 | 0.06 | 0.03 | 67 | 1013.2 |
| 20260501212704 | 62 | 27 | 5.0 | 10.0 | 0.00 | 0.06 | 0.03 | 67 | 1013.1 |
| 20260501211804 | 63 | 41 | 5.0 | 10.0 | 0.00 | 0.06 | 0.03 | 67 | 1013.2 |
| 20260501210904 | 63 | 43 | 4.0 | 10.0 | 0.00 | 0.07 | 0.03 | 67 | 1013.3 |
| 20260501210004 | 62 | 44 | 5.0 | 10.0 | 0.00 | 0.07 | 0.03 | 67 | 1013.4 |
| 20260501205404 | 62 | 48 | 5.0 | 12.0 | 0.00 | 0.08 | 0.03 | 66 | 1013.5 |
| 20260501204504 | 62 | 53 | 5.0 | 9.0 | 0.00 | 0.08 | 0.03 | 68 | 1013.7 |
| 20260501203604 | 61 | 38 | 4.0 | 9.0 | 0.00 | 0.08 | 0.03 | 69 | 1013.7 |
| 20260501202704 | 60 | 46 | 4.0 | 9.0 | 0.00 | 0.08 | 0.03 | 68 | 1013.6 |
| 20260501201804 | 60 | 54 | 4.0 | 9.0 | 0.00 | 0.08 | 0.03 | 69 | 1014.2 |
| 20260501200904 | 60 | 47 | 4.0 | 10.0 | 0.00 | 0.08 | 0.03 | 68 | 1014.4 |
| 20260501200004 | 60 | 45 | 4.0 | 9.0 | 0.00 | 0.08 | 0.03 | 67 | 1014.4 |
| 20260501195404 | 60 | 49 | 4.0 | 11.0 | 0.00 | 0.08 | 0.03 | 66 | 1014.4 |
| 20260501194504 | 60 | 62 | 4.0 | 10.0 | 0.00 | 0.08 | 0.03 | 66 | 1014.6 |
| 20260501193625 | 61 | 56 | 4.0 | 10.0 | 0.00 | 0.08 | 0.03 | 66 | 1014.6 |
| 20260501192704 | 61 | 63 | 4.0 | 11.0 | 0.00 | 0.08 | 0.03 | 68 | 1014.3 |
| 20260501191804 | 60 | 62 | 4.0 | 10.0 | 0.00 | 0.08 | 0.03 | 69 | 1013.6 |
| 20260501190925 | 60 | 59 | 6.0 | 12.0 | 0.00 | 0.08 | 0.03 | 68 | 1013.1 |
| 20260501190004 | 61 | 57 | 5.0 | 11.0 | 0.00 | 0.08 | 0.03 | 69 | 1013.3 |
| 20260501185425 | 60 | 62 | 6.0 | 14.0 | 0.00 | 0.08 | 0.03 | 70 | 1013.3 |